• Em Portugal
  • Lista de países
  • Para 7 dias
  • Temperatura da água
  • Mapas de satélite
  • Mapa do tempo
  • Widgets de tempo
  • user-avatar
    Iniciar Sessão

    Previsão horária em Solno

    Hoje, 22 Outubro, Segunda-feira

    Tempo Temperatura Precipitação Vento Pressão Humidade
    00:00 +7°C° 0 mm 4 m/s 763 mmHg 84%
    01:00 +6°C° 0 mm 5 m/s 762 mmHg 82%
    02:00 +6°C° 0 mm 5 m/s 762 mmHg 83%
    03:00 +6°C° 0 mm 5 m/s 762 mmHg 83%
    04:00 +6°C° 0 mm 5 m/s 761 mmHg 84%
    05:00 +6°C° 0 mm 5 m/s 761 mmHg 84%
    06:00 +6°C° 0 mm 5 m/s 761 mmHg 84%
    07:00 +6°C° 0 mm 4 m/s 761 mmHg 84%
    08:00 +7°C° 0.2 mm 5 m/s 761 mmHg 83%
    09:00 +8°C° 0.2 mm 5 m/s 761 mmHg 83%
    10:00 +8°C° 0.2 mm 5 m/s 760 mmHg 82%
    11:00 +9°C° 0.4 mm 5 m/s 761 mmHg 81%
    12:00 +9°C° 0.4 mm 5 m/s 761 mmHg 81%
    13:00 +10°C° 0.4 mm 6 m/s 761 mmHg 80%
    14:00 +10°C° 0 mm 6 m/s 761 mmHg 76%
    15:00 +9°C° 0 mm 6 m/s 761 mmHg 72%
    16:00 +9°C° 0 mm 6 m/s 761 mmHg 68%
    17:00 +8°C° 0 mm 5 m/s 761 mmHg 70%
    18:00 +8°C° 0 mm 5 m/s 761 mmHg 73%
    19:00 +7°C° 0 mm 5 m/s 762 mmHg 75%
    20:00 +7°C° 0 mm 5 m/s 762 mmHg 76%
    21:00 +7°C° 0 mm 4 m/s 762 mmHg 77%
    22:00 +7°C° 0 mm 4 m/s 761 mmHg 78%
    23:00 +6°C° 0 mm 5 m/s 761 mmHg 79%

    Amanhã, 23 Outubro, Terça-feira

    Tempo Temperatura Precipitação Vento Pressão Humidade
    00:00 +6°C° 0 mm 5 m/s 760 mmHg 79%
    01:00 +5°C° 0 mm 6 m/s 760 mmHg 80%
    02:00 +5°C° 0.2 mm 7 m/s 758 mmHg 80%
    03:00 +5°C° 0.2 mm 7 m/s 757 mmHg 80%
    04:00 +5°C° 0.2 mm 8 m/s 756 mmHg 80%
    05:00 +5°C° 1.2 mm 9 m/s 755 mmHg 82%
    06:00 +5°C° 1.2 mm 10 m/s 753 mmHg 83%
    07:00 +4°C° 1.2 mm 11 m/s 752 mmHg 84%
    08:00 +6°C° 1.7 mm 11 m/s 751 mmHg 85%
    09:00 +6°C° 1.7 mm 11 m/s 749 mmHg 85%
    10:00 +7°C° 1.7 mm 11 m/s 748 mmHg 86%
    11:00 +8°C° 2.5 mm 11 m/s 747 mmHg 86%
    12:00 +8°C° 2.5 mm 11 m/s 746 mmHg 86%
    13:00 +9°C° 2.5 mm 11 m/s 745 mmHg 86%
    14:00 +9°C° 1.1 mm 11 m/s 745 mmHg 84%
    15:00 +9°C° 1.1 mm 11 m/s 744 mmHg 81%
    16:00 +9°C° 1.1 mm 11 m/s 744 mmHg 79%
    17:00 +9°C° 0.8 mm 11 m/s 743 mmHg 78%
    18:00 +9°C° 0.8 mm 11 m/s 743 mmHg 78%
    19:00 +9°C° 0.8 mm 11 m/s 743 mmHg 78%
    20:00 +9°C° 0.5 mm 11 m/s 742 mmHg 76%
    21:00 +9°C° 0.5 mm 11 m/s 742 mmHg 74%
    22:00 +9°C° 0.5 mm 11 m/s 741 mmHg 71%
    23:00 +8°C° 0.2 mm 11 m/s 741 mmHg 68%

    Depois de amanhã, 24 Outubro, Quarta-feira

    Tempo Temperatura Precipitação Vento Pressão Humidade
    00:00 +7°C° 0.2 mm 12 m/s 742 mmHg 65%
    01:00 +7°C° 0.2 mm 12 m/s 742 mmHg 62%
    02:00 +6°C° 0.1 mm 11 m/s 743 mmHg 60%
    03:00 +6°C° 0.1 mm 10 m/s 744 mmHg 57%
    04:00 +5°C° 0.1 mm 10 m/s 744 mmHg 55%
    05:00 +5°C° 0 mm 10 m/s 745 mmHg 54%
    06:00 +3°C° 0 mm 10 m/s 746 mmHg 53%
    07:00 +3°C° 0 mm 10 m/s 746 mmHg 52%
    08:00 +5°C° 0 mm 10 m/s 747 mmHg 50%
    09:00 +6°C° 0 mm 11 m/s 748 mmHg 48%
    10:00 +6°C° 0 mm 11 m/s 749 mmHg 46%
    11:00 +7°C° 0 mm 11 m/s 749 mmHg 45%
    12:00 +7°C° 0 mm 11 m/s 750 mmHg 44%
    13:00 +7°C° 0 mm 11 m/s 750 mmHg 44%
    14:00 +7°C° 0 mm 10 m/s 751 mmHg 46%
    15:00 +6°C° 0 mm 9 m/s 751 mmHg 48%
    16:00 +6°C° 0 mm 8 m/s 752 mmHg 51%
    17:00 +6°C° 0 mm 7 m/s 752 mmHg 53%
    18:00 +5°C° 0 mm 6 m/s 752 mmHg 56%
    19:00 +5°C° 0 mm 6 m/s 752 mmHg 59%
    20:00 +6°C° 0 mm 5 m/s 752 mmHg 62%
    21:00 +5°C° 0 mm 5 m/s 752 mmHg 66%
    22:00 +5°C° 0 mm 4 m/s 752 mmHg 70%
    23:00 +5°C° 0.1 mm 4 m/s 751 mmHg 74%

    25 Outubro, Quinta-feira

    Tempo Temperatura Precipitação Vento Pressão Humidade
    00:00 +6°C° 0.1 mm 5 m/s 750 mmHg 78%
    01:00 +6°C° 0.1 mm 5 m/s 750 mmHg 83%
    02:00 +7°C° 0.7 mm 6 m/s 749 mmHg 86%
    03:00 +8°C° 0.7 mm 7 m/s 748 mmHg 88%
    04:00 +9°C° 0.7 mm 8 m/s 746 mmHg 91%
    05:00 +8°C° 0.5 mm 9 m/s 746 mmHg 87%
    06:00 +9°C° 0.5 mm 10 m/s 746 mmHg 83%
    07:00 +9°C° 0.5 mm 11 m/s 745 mmHg 79%
    08:00 +9°C° 0.2 mm 10 m/s 745 mmHg 77%
    09:00 +9°C° 0.2 mm 10 m/s 746 mmHg 75%
    10:00 +8°C° 0.2 mm 9 m/s 746 mmHg 73%
    11:00 +10°C° 0.1 mm 9 m/s 746 mmHg 70%
    12:00 +9°C° 0.1 mm 10 m/s 747 mmHg 68%
    13:00 +11°C° 0.1 mm 10 m/s 747 mmHg 66%
    14:00 +10°C° 0 mm 9 m/s 747 mmHg 68%
    15:00 +10°C° 0 mm 9 m/s 747 mmHg 69%
    16:00 +10°C° 0 mm 8 m/s 748 mmHg 71%
    17:00 +9°C° 0 mm 8 m/s 748 mmHg 72%
    18:00 +9°C° 0 mm 7 m/s 748 mmHg 74%
    19:00 +9°C° 0 mm 7 m/s 749 mmHg 75%
    20:00 +8°C° 0 mm 6 m/s 749 mmHg 77%
    21:00 +8°C° 0 mm 5 m/s 749 mmHg 78%
    22:00 +8°C° 0 mm 5 m/s 750 mmHg 80%
    23:00 +7°C° 0.1 mm 4 m/s 750 mmHg 81%

    26 Outubro, Sexta-feira

    Tempo Temperatura Precipitação Vento Pressão Humidade
    00:00 +8°C° 0.1 mm 3 m/s 750 mmHg 82%
    01:00 +8°C° 0.1 mm 3 m/s 750 mmHg 83%
    02:00 +8°C° 0.1 mm 3 m/s 750 mmHg 84%
    03:00 +8°C° 0.1 mm 3 m/s 750 mmHg 84%
    04:00 +8°C° 0.1 mm 3 m/s 750 mmHg 85%
    05:00 +8°C° 0.1 mm 3 m/s 750 mmHg 86%
    06:00 +7°C° 0.1 mm 3 m/s 750 mmHg 87%
    07:00 +7°C° 0.1 mm 3 m/s 749 mmHg 89%
    08:00 +7°C° 0 mm 4 m/s 749 mmHg 85%
    09:00 +7°C° 0 mm 4 m/s 749 mmHg 82%
    10:00 +8°C° 0 mm 4 m/s 749 mmHg 79%
    11:00 +9°C° 0.2 mm 5 m/s 748 mmHg 78%
    12:00 +9°C° 0.2 mm 5 m/s 748 mmHg 77%
    13:00 +9°C° 0.2 mm 5 m/s 747 mmHg 76%
    14:00 +10°C° 0.1 mm 5 m/s 747 mmHg 78%
    15:00 +10°C° 0.1 mm 5 m/s 746 mmHg 79%
    16:00 +10°C° 0.1 mm 5 m/s 746 mmHg 80%
    17:00 +10°C° 0.1 mm 5 m/s 745 mmHg 81%
    18:00 +10°C° 0.1 mm 5 m/s 745 mmHg 82%
    19:00 +10°C° 0.1 mm 6 m/s 745 mmHg 83%
    20:00 +9°C° 0.1 mm 6 m/s 744 mmHg 84%
    21:00 +9°C° 0.1 mm 5 m/s 744 mmHg 84%
    22:00 +9°C° 0.1 mm 5 m/s 744 mmHg 85%
    23:00 +8°C° 0 mm 5 m/s 743 mmHg 86%

    27 Outubro, Sábado

    Tempo Temperatura Precipitação Vento Pressão Humidade
    00:00 +8°C° 0 mm 6 m/s 743 mmHg 86%
    01:00 +8°C° 0 mm 6 m/s 743 mmHg 87%
    02:00 +8°C° 0.1 mm 6 m/s 743 mmHg 86%
    03:00 +8°C° 0.1 mm 6 m/s 743 mmHg 86%
    04:00 +7°C° 0.1 mm 6 m/s 743 mmHg 86%
    05:00 +7°C° 0 mm 5 m/s 743 mmHg 86%
    06:00 +7°C° 0 mm 5 m/s 743 mmHg 85%
    07:00 +6°C° 0 mm 5 m/s 743 mmHg 85%
    08:00 +6°C° 0 mm 5 m/s 743 mmHg 80%
    09:00 +7°C° 0 mm 5 m/s 744 mmHg 76%
    10:00 +7°C° 0 mm 5 m/s 744 mmHg 71%
    11:00 +8°C° 0 mm 5 m/s 744 mmHg 67%
    12:00 +8°C° 0 mm 5 m/s 744 mmHg 63%
    13:00 +9°C° 0 mm 5 m/s 744 mmHg 60%
    14:00 +8°C° 0 mm 4 m/s 744 mmHg 62%
    15:00 +9°C° 0 mm 3 m/s 744 mmHg 64%
    16:00 +8°C° 0 mm 3 m/s 744 mmHg 67%
    17:00 +8°C° 0 mm 2 m/s 744 mmHg 68%
    18:00 +8°C° 0 mm 2 m/s 744 mmHg 69%
    19:00 +7°C° 0 mm 2 m/s 744 mmHg 70%
    20:00 +8°C° 0 mm 1 m/s 745 mmHg 71%
    21:00 +8°C° 0 mm 1 m/s 745 mmHg 72%
    22:00 +8°C° 0 mm 1 m/s 745 mmHg 72%
    23:00 +8°C° 0 mm 1 m/s 745 mmHg 73%

    28 Outubro, Domingo

    Tempo Temperatura Precipitação Vento Pressão Humidade
    00:00 +8°C° 0 mm 1 m/s 745 mmHg 73%
    01:00 +8°C° 0 mm 1 m/s 744 mmHg 73%
    02:00 +7°C° 0 mm 1 m/s 744 mmHg 75%
    03:00 +7°C° 0 mm 1 m/s 744 mmHg 76%
    04:00 +7°C° 0 mm 1 m/s 744 mmHg 77%
    05:00 +7°C° 0.1 mm 1 m/s 744 mmHg 79%
    06:00 +7°C° 0.1 mm 1 m/s 744 mmHg 80%
    07:00 +7°C° 0.1 mm 1 m/s 744 mmHg 81%
    08:00 +7°C° 0.2 mm 1 m/s 744 mmHg 79%
    09:00 +7°C° 0.2 mm 2 m/s 745 mmHg 78%
    10:00 +7°C° 0.2 mm 2 m/s 745 mmHg 76%
    11:00 +7°C° 0.5 mm 2 m/s 745 mmHg 77%
    12:00 +7°C° 0.5 mm 2 m/s 745 mmHg 78%
    13:00 +7°C° 0.5 mm 3 m/s 745 mmHg 79%
    14:00 +7°C° 0.8 mm 3 m/s 745 mmHg 82%
    15:00 +7°C° 0.8 mm 3 m/s 745 mmHg 84%
    16:00 +5°C° 0.8 mm 3 m/s 746 mmHg 87%
    17:00 +5°C° 0.5 mm 3 m/s 746 mmHg 87%
    18:00 +6°C° 0.5 mm 2 m/s 746 mmHg 88%
    19:00 +6°C° 0.5 mm 2 m/s 747 mmHg 89%
    20:00 +5°C° 0.6 mm 3 m/s 747 mmHg 87%
    21:00 +5°C° 0.6 mm 4 m/s 748 mmHg 85%
    22:00 +5°C° 0.6 mm 4 m/s 748 mmHg 83%
    23:00 +3°C° 0.5 mm 5 m/s 748 mmHg 83%
    Mostrar mais